{"data":{"norad_id":48000,"epoch":"2026-09-19T23:16:23.288736Z","epoch_age_seconds":75160,"freshness":"FRESH","line1":"1 48000U 21024Z   26262.96971399  .00058095  00000+0  98381-3 0  9990","line2":"2 48000  53.1239  43.6784 0004424 323.5054  36.5653 15.51005010305795","mean_motion":15.5100501,"eccentricity":0.0004424,"inclination_deg":53.1239,"raan_deg":43.6784,"arg_perigee_deg":323.5054,"mean_anomaly_deg":36.5653,"bstar":0.00098381,"rev_number":30579,"period_min":92.843026986741,"perigee_km":410.78574302791,"apogee_km":416.79524047261,"semimajor_km":6791.9274917503,"source":"CELESTRAK","updated_at":"2026-09-20T09:00:38.759509Z"}}